ECMWFFLT1_850_rhum_228.txt.gz
RH
80 80 80 81 81 83 85 86 88 88 90 92 92 93 95 95 96 98 98 99 100 100 100 100 100 100 99 100 100 100 100 100 100 100 100 100 100 100 100 100 100 99 97 95 93 93 91 90 90 89 87 84 79 75 70 65 60 56 53 51 49 46 42
57 58 59 59 60 62 66 70 73 76 79 82 83 86 88 90 92 94 94 96 97 97 98 99 100 100 100 100 100 99 100 100 100 100 100 101 100 100 100 100 100 100 100 96 92 91 90 88 86 86 85 85 84 82 81 78 74 69 65 61 58 55 50
37 38 38 38 38 38 41 44 47 51 56 60 63 67 70 72 76 80 83 87 89 91 93 94 95 97 98 99 100 100 100 100 99 100 99 100 100 100 100 100 100 100 99 97 92 90 88 87 85 83 82 80 79 79 78 78 78 76 71 67 62 59 56
32 33 32 31 31 31 32 31 31 32 33 36 39 42 45 48 51 55 59 63 68 73 77 81 85 88 91 93 95 96 98 99 100 100 100 99 99 99 100 100 100 100 100 99 97 93 91 90 88 86 84 82 80 78 76 74 71 70 67 64 59 56 53
31 32 31 32 32 31 32 30 29 29 27 27 27 27 28 30 32 34 36 37 40 44 48 54 60 66 72 78 82 85 88 91 94 96 98 99 100 100 100 100 99 100 100 100 100 99 97 95 95 94 92 91 89 85 82 79 76 71 65 59 53 49 45
30 30 30 30 30 29 29 29 28 28 27 27 26 24 24 23 23 24 25 26 27 27 29 31 33 37 42 48 55 61 67 72 78 82 86 90 93 96 98 99 101 101 100 100 100 100 99 99 98 98 96 95 94 92 89 86 84 81 78 72 64 56 49
30 30 30 29 29 28 28 27 27 27 26 27 26 25 24 23 22 22 20 21 21 21 22 22 22 22 23 25 28 32 37 43 50 56 62 69 74 79 83 87 91 94 97 99 100 100 101 100 100 99 97 95 94 93 92 89 85 84 84 84 81 75 68
30 28 28 28 28 27 26 26 26 26 25 26 26 26 26 25 25 23 22 22 20 19 18 17 17 17 16 17 18 18 20 22 26 29 34 41 48 54 61 67 72 75 78 82 86 91 95 97 98 98 95 93 92 91 92 90 87 84 81 81 83 83 80
29 27 26 26 25 25 25 24 24 23 23 24 24 25 25 24 25 24 24 23 22 21 19 17 16 15 15 14 13 14 14 14 16 17 18 22 26 29 35 42 48 54 60 64 67 72 76 79 85 87 86 85 86 87 89 90 90 88 84 79 77 79 82
29 28 26 24 24 24 23 22 21 20 20 20 20 21 21 21 22 22 22 22 22 21 20 19 18 16 16 15 13 13 12 11 12 12 13 15 15 16 18 21 24 30 37 46 53 60 64 66 68 72 76 78 79 79 81 82 83 85 85 81 77 77 81
32 31 29 27 26 25 23 22 21 20 20 19 19 19 18 18 19 19 19 19 19 19 19 18 18 17 17 16 15 14 13 12 12 11 11 11 11 13 15 16 19 20 21 27 35 43 54 61 66 69 74 77 79 80 81 82 81 80 81 84 84 82 79
31 31 30 29 29 27 26 26 23 23 23 20 25 33 30 22 19 18 18 18 17 17 17 16 16 16 16 16 16 15 14 14 13 12 12 12 11 12 14 17 21 23 22 24 25 28 35 46 57 64 70 78 81 81 82 83 85 86 87 88 88 83 76
29 29 27 27 28 26 27 27 25 27 26 21 34 53 54 39 27 21 20 20 18 18 17 17 17 16 16 16 15 15 15 15 15 14 13 13 13 13 14 16 18 20 24 27 31 35 38 44 53 59 65 75 81 83 85 84 82 84 84 82 80 78 73
28 28 27 27 27 25 27 26 25 29 26 26 44 62 63 55 41 29 26 25 23 23 22 20 20 19 18 18 17 17 17 16 16 16 15 15 15 15 15 16 17 20 24 29 36 42 44 47 51 53 56 64 73 83 91 91 84 77 74 72 72 73 74
29 29 28 28 27 27 27 26 28 29 25 36 61 70 64 61 53 39 34 31 28 29 27 25 25 24 23 22 22 22 22 22 21 19 17 17 16 16 17 18 21 24 27 33 38 41 44 47 50 54 62 73 81 85 89 93 92 87 83 76 67 66 70
31 30 30 30 29 29 30 27 30 32 28 41 71 79 68 64 61 53 47 41 35 33 32 30 29 28 27 27 27 26 27 28 28 24 22 22 20 20 20 20 23 26 31 38 43 46 53 64 72 77 85 93 96 91 88 92 95 96 98 90 74 63 62
33 33 33 34 32 32 33 31 32 35 32 42 69 80 69 61 59 58 56 51 46 44 41 39 38 35 33 31 30 30 31 32 32 30 28 27 25 25 25 25 25 26 30 34 37 40 48 58 68 77 86 93 97 95 92 90 86 90 98 96 87 75 65
38 39 38 39 38 37 38 37 37 38 36 41 57 71 73 68 61 57 56 54 54 55 50 47 46 42 40 39 36 34 34 34 36 39 40 42 44 43 41 37 30 25 27 28 30 35 41 46 53 60 69 80 88 91 91 85 79 85 92 91 91 90 81
45 46 46 46 47 46 45 45 44 44 44 43 46 60 77 79 67 57 55 52 53 55 53 52 51 47 46 46 42 42 42 38 45 63 72 74 73 66 59 52 40 33 33 31 29 33 37 41 47 51 55 61 67 71 75 74 74 80 84 84 87 93 94
52 52 53 52 53 53 53 52 51 50 51 49 47 55 68 69 60 57 56 52 51 52 52 52 52 50 51 50 48 51 48 41 57 87 98 90 78 66 60 58 48 41 43 40 36 38 38 38 44 50 54 58 59 60 60 61 64 70 75 78 78 80 86
53 53 54 55 55 55 56 56 56 55 55 54 53 55 58 57 55 57 57 53 52 53 52 52 52 50 50 50 49 51 49 52 76 95 86 74 72 67 62 60 53 49 51 46 42 43 40 39 45 52 58 64 66 66 65 62 61 62 66 70 69 66 67
52 52 53 54 54 55 56 57 58 59 58 58 57 57 57 56 56 57 57 55 55 54 53 54 54 52 52 52 50 51 57 69 82 77 58 54 61 61 57 58 57 57 58 55 51 49 43 40 43 45 49 58 64 69 75 76 72 68 66 66 65 62 61
55 54 54 54 54 55 56 57 58 59 59 59 59 58 58 57 56 57 58 57 56 55 54 55 55 56 57 58 58 62 66 69 64 54 48 50 53 51 51 52 52 52 54 53 53 52 48 45 44 42 41 45 48 54 66 75 79 78 75 70 63 60 59
58 57 56 55 54 54 55 55 56 56 56 57 58 58 57 56 56 56 56 55 55 56 56 57 58 60 61 63 64 65 65 63 59 55 53 52 50 51 52 51 49 48 49 48 47 48 47 47 47 47 46 44 44 48 53 61 69 74 75 73 66 59 56
59 57 57 56 54 53 53 52 52 52 53 54 56 56 54 54 53 53 52 53 53 54 56 60 63 64 64 64 64 63 62 62 61 60 57 55 55 56 54 53 52 50 48 47 46 46 46 46 46 48 49 48 48 48 49 53 61 65 68 72 69 62 57
61 60 59 58 57 56 53 50 48 47 48 50 50 50 49 49 49 49 49 49 50 52 55 59 64 66 65 65 66 68 69 68 67 65 63 60 60 59 56 54 53 50 49 49 47 46 46 45 47 51 55 59 60 61 64 71 74 72 70 74 75 70 60
65 64 62 61 61 60 56 52 48 45 44 45 44 44 45 45 45 45 45 46 48 49 51 55 58 61 62 65 70 74 76 77 76 73 68 63 61 59 56 53 51 51 53 54 54 54 54 53 56 64 74 82 85 86 91 95 96 92 87 84 83 77 65
66 65 66 67 67 65 61 57 52 49 47 46 45 46 46 45 45 46 50 56 56 51 51 54 57 58 59 63 67 71 73 75 75 72 67 62 59 55 53 52 53 56 61 66 70 74 77 80 83 88 94 98 99 99 100 101 101 102 99 94 90 83 72
68 69 70 72 71 70 68 62 57 55 54 53 53 54 54 56 59 65 77 86 77 63 59 63 63 63 64 64 65 66 66 65 64 63 61 59 58 56 56 57 61 65 72 80 86 90 95 99 100 99 100 100 100 100 101 101 100 100 97 94 91 87 80
68 69 70 70 69 69 69 66 62 61 61 61 63 65 69 75 80 87 98 100 85 69 69 73 72 71 71 70 69 68 67 66 64 63 62 62 63 66 67 68 73 81 87 92 96 98 100 101 100 100 101 100 100 100 100 100 99 97 95 92 89 86 81
66 67 68 68 67 67 67 67 68 68 67 68 70 73 77 80 82 88 95 93 79 70 72 75 75 75 74 74 74 73 72 73 72 72 73 72 72 77 82 84 86 91 96 100 102 101 100 100 100 100 100 100 101 101 99 98 97 95 93 91 88 85 81
66 68 69 69 69 70 69 70 71 71 71 71 72 73 76 77 78 82 85 82 75 74 77 78 78 79 78 77 78 78 77 78 79 80 83 84 83 86 90 92 93 94 96 100 102 102 101 101 100 100 100 100 101 100 99 99 97 93 92 90 87 83 78
67 69 70 71 72 74 74 74 73 72 73 74 74 74 76 77 77 78 78 77 77 79 79 78 79 80 80 80 80 79 80 82 84 87 90 92 93 93 93 93 95 95 94 95 97 99 100 100 100 100 101 100 100 100 101 100 96 93 91 90 87 83 78
67 70 72 72 74 76 77 76 75 74 74 75 76 78 80 77 73 74 76 78 81 81 80 79 79 79 80 80 80 80 82 84 88 91 94 94 94 94 94 93 93 93 92 91 91 90 91 92 93 95 96 96 96 97 97 96 94 92 91 89 86 83 80
66 71 74 75 77 79 79 79 78 76 77 78 80 83 83 79 75 75 76 78 81 83 83 82 81 79 79 79 79 79 82 86 90 93 96 96 94 93 92 90 90 89 89 87 86 84 83 83 83 84 87 89 89 90 90 89 88 87 85 86 88 88 88
70 73 77 80 83 84 83 83 83 82 82 83 85 87 86 83 81 80 78 77 80 83 83 83 82 82 82 82 82 82 84 88 91 94 97 98 98 96 94 92 90 89 88 86 84 81 79 78 78 79 81 84 85 85 86 84 84 84 86 90 95 100 102

ECMWFFLT1_850_rhum_234.txt.gz
RH
58 56 58 57 54 53 57 61 63 65 69 72 75 80 84 88 91 94 96 97 99 99 99 99 98 97 96 97 97 96 96 97 97 98 99 98 97 97 98 98 98 99 99 98 96 94 94 94 95 96 96 96 97 97 99 99 99 100 99 100 100 100 99
57 53 50 47 43 40 38 39 38 37 38 39 40 43 46 51 56 63 70 75 79 83 87 89 92 93 93 96 97 96 96 97 97 98 98 99 99 97 97 98 98 98 99 99 99 97 96 94 94 95 94 94 96 96 97 99 99 99 98 99 99 99 99
62 59 55 51 47 43 40 38 36 33 32 31 29 28 28 28 29 32 36 40 45 50 55 60 65 68 72 79 84 87 89 92 94 95 97 99 100 99 99 98 98 99 97 98 99 99 98 96 95 95 94 94 95 95 95 97 98 99 98 98 98 98 98
66 63 60 55 51 48 44 41 39 36 34 33 31 28 27 26 25 25 25 25 26 28 30 33 37 39 41 47 54 58 63 70 77 82 86 91 94 97 99 100 100 101 99 99 99 98 97 96 95 95 93 93 95 95 95 96 96 97 98 98 98 97 97
74 70 66 62 57 53 49 45 41 38 35 33 31 29 28 28 27 27 26 25 25 24 24 25 26 27 26 29 32 33 36 41 48 55 60 68 75 79 83 88 91 94 97 98 99 99 99 97 98 97 95 93 94 94 95 96 97 97 97 99 99 98 98
78 75 72 69 65 61 56 52 48 44 39 35 31 28 27 26 26 26 26 25 25 24 24 24 24 24 24 24 24 25 25 26 29 32 35 39 45 49 54 58 63 68 73 77 81 84 87 90 93 94 93 93 93 92 92 93 95 97 97 98 99 99 98
76 73 71 68 65 63 60 56 52 49 45 42 36 31 28 26 24 23 22 22 23 23 23 23 23 23 23 23 23 22 22 23 23 24 24 25 26 28 30 33 36 39 41 44 47 50 55 62 68 72 74 77 80 83 85 84 85 89 92 93 95 97 97
73 70 68 64 61 58 54 52 51 48 45 45 43 37 33 31 28 25 24 23 22 21 21 21 21 21 21 20 21 21 21 21 21 21 21 21 21 21 21 21 22 23 23 24 26 27 29 32 36 40 43 48 52 57 64 69 71 74 77 79 82 85 87
73 70 67 63 60 56 52 49 48 49 54 55 48 40 35 33 32 30 27 25 24 23 22 21 20 19 19 19 18 19 19 18 19 19 19 19 19 19 19 19 19 18 19 20 19 20 21 21 22 23 23 25 27 30 35 40 44 47 52 57 61 66 69
72 71 67 64 61 56 53 50 46 59 79 76 56 42 35 32 30 28 26 26 25 25 24 23 23 21 20 20 19 18 18 17 17 17 17 17 17 17 17 17 17 18 19 19 20 22 22 21 21 20 20 20 20 21 21 21 23 25 28 32 35 42 51
65 67 65 64 62 56 55 51 45 64 97 94 65 47 38 33 30 26 25 26 24 24 25 23 24 24 22 22 22 20 20 19 19 18 18 17 17 16 17 17 17 19 20 21 24 27 27 26 26 24 23 22 21 21 20 19 19 18 19 21 21 24 34
56 58 58 59 60 56 55 52 46 63 97 104 84 62 45 38 36 30 26 27 25 24 25 23 23 24 24 24 24 23 22 21 21 21 20 20 19 19 18 18 19 21 24 27 30 33 35 38 38 35 33 31 28 25 25 25 26 24 21 21 19 18 20
50 51 51 52 54 53 52 51 46 57 87 104 99 81 58 43 38 34 30 29 28 26 25 25 25 24 24 25 24 24 24 23 23 22 22 22 22 22 22 22 22 22 25 30 36 41 45 48 49 49 48 46 39 33 34 38 39 36 32 29 28 27 24
45 46 46 46 48 49 49 50 46 48 70 95 104 97 78 54 40 37 37 33 31 29 27 27 27 25 25 25 25 26 26 26 25 24 22 23 23 23 25 25 25 26 27 29 34 39 42 43 46 52 53 51 47 43 44 48 48 47 45 41 35 32 28
42 42 43 43 45 46 46 49 48 45 56 82 101 103 90 66 45 39 39 36 34 34 33 33 31 30 29 27 27 29 28 29 32 28 23 24 24 24 26 26 27 29 30 32 33 33 33 33 37 45 47 45 46 47 47 49 54 57 57 53 49 47 45
43 42 42 42 42 44 44 46 50 48 48 66 93 105 94 72 52 39 36 36 37 38 37 38 36 35 34 32 32 32 31 33 39 37 28 26 27 27 28 27 28 29 31 33 33 32 34 34 35 38 38 37 41 43 42 45 53 60 63 65 68 67 61
47 45 44 43 41 42 43 42 45 48 46 53 78 97 95 80 62 46 37 36 38 39 39 40 40 39 38 36 35 35 36 37 42 42 35 30 31 32 32 31 29 30 32 33 34 35 37 38 38 38 37 38 41 43 43 46 50 55 58 62 67 67 65
49 49 47 46 44 43 43 41 41 44 45 46 56 73 88 92 77 55 43 41 39 40 40 41 43 42 40 39 38 37 38 38 41 46 47 45 42 38 36 35 31 29 31 32 34 38 39 38 39 39 38 40 42 43 45 47 48 51 54 58 66 72 72
50 51 51 49 48 46 45 43 42 41 44 45 46 55 79 96 83 58 48 47 44 42 41 41 42 42 42 42 39 38 40 40 48 65 78 79 72 59 49 44 39 34 33 32 32 34 35 35 36 36 36 37 37 39 42 43 45 48 52 57 65 70 71
51 52 53 52 51 50 48 46 44 43 43 44 45 49 63 76 72 58 52 51 47 44 43 42 41 41 42 41 40 41 40 38 56 89 101 97 94 87 73 59 48 42 40 37 34 34 33 32 33 32 33 33 32 33 35 36 38 41 43 48 51 56 65
54 52 52 53 53 52 51 49 46 45 43 43 45 48 52 56 57 55 55 53 49 47 46 45 43 41 41 40 40 42 38 39 68 100 104 98 101 101 88 68 52 46 44 41 39 38 36 35 35 33 33 33 32 33 33 33 35 36 37 40 42 47 58
56 54 52 52 51 51 51 50 47 46 44 43 43 45 47 49 50 51 52 52 50 48 46 46 44 41 41 40 39 39 41 52 73 85 86 93 98 89 75 63 53 48 46 43 42 41 38 38 38 37 37 37 35 36 35 34 35 35 36 38 39 42 48
55 54 52 51 50 49 49 48 47 46 44 43 43 43 44 46 46 46 48 48 48 47 46 44 42 40 40 39 39 41 44 50 54 51 54 66 69 60 54 53 50 49 47 44 44 42 40 40 39 38 39 38 38 38 37 36 37 36 36 38 39 40 43
55 54 52 50 49 48 47 45 45 44 43 43 43 42 42 43 43 44 44 45 46 47 47 45 42 41 41 41 42 44 43 41 41 41 44 47 46 47 50 51 51 52 50 46 45 43 42 41 39 39 39 38 37 38 37 37 38 37 37 38 39 40 42
54 53 52 51 48 47 46 45 44 44 44 45 45 44 44 43 43 43 44 45 46 47 48 48 45 44 45 46 47 46 44 43 43 44 45 45 45 47 48 50 52 52 49 46 45 44 43 41 40 40 39 38 38 38 38 40 40 38 39 42 43 46 49
53 52 51 50 48 47 46 45 44 45 46 47 47 46 47 46 46 47 48 49 51 52 53 52 50 48 50 52 54 53 51 50 48 48 49 49 49 48 47 49 51 50 49 49 48 48 47 44 44 43 40 41 42 40 41 45 44 41 47 56 61 65 70
54 53 52 51 50 49 47 45 45 46 48 49 49 48 49 49 49 51 52 53 59 65 64 57 53 52 54 57 59 58 57 56 54 53 53 51 51 51 50 51 51 51 52 53 54 56 56 54 54 53 50 51 51 49 54 60 57 55 62 70 78 84 86
56 56 57 57 54 52 50 47 46 48 50 51 51 52 53 53 53 56 59 61 68 75 69 58 54 56 57 61 62 61 62 63 62 61 60 58 59 58 57 57 57 57 60 62 65 69 73 75 76 75 72 71 68 66 72 78 78 79 81 83 88 94 94
62 61 63 64 62 60 57 52 50 52 54 55 56 57 58 58 58 62 65 65 69 74 69 60 59 61 62 64 65 64 65 66 66 66 64 63 65 65 65 66 66 66 69 73 77 83 90 94 93 91 89 88 84 80 83 89 92 94 94 93 96 100 100
68 68 70 71 69 67 65 59 55 56 57 57 59 60 61 62 62 64 66 66 68 70 68 64 64 65 65 66 66 65 65 67 67 67 66 66 67 68 68 70 72 72 73 75 80 88 95 97 97 95 93 92 91 87 86 87 91 94 98 99 100 101 103
72 71 72 72 70 68 66 63 61 61 61 62 64 64 64 65 65 66 68 70 72 71 68 67 68 68 68 68 68 66 65 67 67 67 67 67 67 68 69 71 73 75 75 77 82 88 92 93 94 95 93 90 89 87 84 81 81 85 90 94 96 99 101
77 75 74 73 72 71 68 66 66 66 65 66 68 69 69 69 69 69 70 73 75 74 72 74 74 72 71 71 71 69 68 68 68 68 69 69 68 69 71 72 73 74 76 80 85 87 87 88 88 88 88 86 84 83 81 78 75 75 78 82 85 88 90
78 79 79 76 75 74 73 72 70 70 70 70 71 72 74 74 73 73 73 75 77 77 77 78 78 76 74 74 74 73 72 71 71 70 71 72 72 72 73 73 73 75 77 81 85 86 85 86 86 85 86 84 82 81 80 76 73 71 71 73 75 76 79
72 77 80 79 76 75 75 74 72 71 72 73 74 75 78 78 77 75 74 76 78 79 79 79 78 77 76 75 74 75 75 75 74 74 74 75 76 76 77 77 77 78 80 82 86 87 87 86 87 87 87 85 83 82 80 76 74 72 71 71 71 72 73
69 73 78 79 77 77 76 73 71 71 72 74 76 78 80 81 78 76 76 78 80 81 81 81 80 79 78 78 77 77 78 78 78 78 78 79 79 80 81 81 81 81 82 84 86 87 87 87 87 87 88 87 86 84 81 79 78 76 75 75 74 74 75
72 74 77 78 80 81 79 74 72 72 73 75 77 80 83 84 81 80 80 80 81 81 81 81 81 81 80 80 79 80 81 82 82 82 81 82 81 79 78 78 78 78 78 78 80 80 80 80 81 82 84 86 86 85 84 83 82 80 79 79 80 80 82

ECMWFFLT1_850_rhum_240.txt.gz
RH
90 90 90 90 91 91 91 90 89 87 86 85 83 81 80 78 76 75 73 72 73 71 70 73 75 78 80 85 91 95 97 100 101 100 100 100 100 100 100 100 100 100 100 100 100 100 100 100 100 100 99 97 97 96 94 92 91 90 90 89 88 88 88
90 91 91 90 90 90 90 90 90 89 88 88 87 85 83 80 79 78 76 75 74 71 70 68 66 65 63 62 68 72 74 81 89 95 98 100 100 100 100 100 100 100 100 100 100 100 100 100 100 100 99 99 100 99 98 96 95 94 93 92 91 90 90
89 90 91 91 90 88 88 88 88 87 87 87 87 86 86 84 81 80 78 77 75 73 72 70 68 67 63 59 59 57 54 54 61 69 77 84 91 97 100 100 101 101 100 100 100 100 100 100 100 101 100 100 100 100 100 99 98 98 97 96 95 94 93
84 86 87 88 87 86 86 85 85 85 85 85 85 85 86 86 85 83 81 79 78 75 73 71 69 67 64 61 60 58 54 49 47 47 49 53 60 70 80 87 92 97 98 99 100 98 98 99 97 97 99 99 99 99 99 99 99 99 98 98 97 96 95
76 78 80 81 82 83 83 83 82 83 82 82 83 83 83 85 86 85 83 81 78 76 73 71 69 67 64 62 60 59 56 52 49 45 41 39 38 41 47 54 62 71 77 81 85 85 88 92 88 82 82 85 87 88 90 92 93 93 94 95 94 93 93
68 70 72 74 77 80 81 82 81 81 81 81 81 81 81 82 83 84 84 83 80 76 73 70 68 65 63 61 60 58 56 54 51 48 44 40 37 33 33 34 35 40 45 50 57 66 76 83 82 73 67 66 65 65 67 71 73 75 78 81 85 86 87
61 63 65 67 70 75 79 82 84 85 85 82 81 81 80 78 79 80 82 83 81 79 76 72 68 65 61 60 58 56 55 54 51 49 46 43 41 38 35 32 29 28 29 29 34 48 63 71 73 70 62 53 47 44 45 48 51 53 55 58 62 66 69
55 56 58 61 64 68 75 82 88 90 88 86 90 91 85 78 75 74 76 78 79 78 76 74 71 67 63 60 57 55 53 52 50 48 46 43 41 40 37 34 31 27 26 25 24 30 41 48 54 55 48 40 34 32 32 35 38 39 39 40 41 45 50
51 51 52 55 58 62 68 77 88 94 91 93 100 99 91 83 76 71 70 70 72 73 73 72 70 67 65 61 58 55 52 50 49 47 45 43 40 38 36 33 32 29 27 27 25 25 28 31 36 38 33 28 26 26 27 29 29 29 32 33 33 39 42
48 49 50 50 52 56 60 68 82 93 94 95 100 101 98 93 83 74 68 65 65 66 66 66 66 64 63 61 59 56 53 50 48 45 44 42 40 38 36 33 31 30 28 27 27 29 29 26 29 33 30 27 28 28 28 28 27 26 28 27 27 35 41
46 47 49 49 50 52 55 58 69 83 93 97 99 100 100 98 92 82 72 65 63 61 60 59 60 59 59 59 57 56 53 51 49 46 43 42 40 39 38 37 35 32 30 29 30 33 33 28 28 34 35 31 29 29 28 29 29 27 26 25 23 26 30
45 46 47 48 50 51 53 54 57 67 81 92 97 100 101 100 97 88 75 66 62 60 58 54 53 54 55 56 55 54 52 50 49 48 45 42 40 39 39 39 40 40 39 36 34 36 38 35 31 35 38 34 28 27 27 27 28 27 26 25 23 22 21
45 45 45 46 47 49 50 52 54 56 64 73 80 92 101 101 95 89 79 69 62 58 55 52 49 49 49 50 52 51 51 50 48 47 46 43 41 39 39 40 41 44 47 44 40 39 42 43 39 37 41 40 34 30 27 25 25 24 24 24 23 22 21
45 44 45 44 44 45 45 47 51 51 54 58 59 75 100 104 93 84 78 70 62 54 50 49 47 45 44 45 45 45 47 48 47 47 47 45 41 39 39 40 40 41 44 45 44 40 39 42 41 40 41 42 39 34 30 27 25 23 23 23 22 22 21
46 44 45 44 42 43 41 41 45 46 49 52 50 65 94 100 82 70 64 60 54 48 46 46 44 42 40 39 39 41 43 43 46 48 49 47 43 42 42 41 41 42 42 43 45 41 36 35 37 38 38 37 37 36 33 30 27 25 25 24 23 22 21
47 46 45 44 43 43 40 38 41 41 44 47 45 58 79 78 62 53 50 48 46 43 42 42 40 40 38 35 36 37 37 41 47 50 49 46 45 47 50 49 48 48 46 46 47 45 41 40 41 42 40 39 38 38 36 34 31 29 28 27 27 24 22
49 48 47 46 45 45 43 40 39 40 42 42 43 53 63 59 50 47 43 40 40 40 40 38 38 39 37 34 33 32 35 42 45 45 46 48 54 63 67 65 61 55 49 45 45 44 44 47 48 46 44 42 41 39 38 36 34 32 31 31 31 29 27
52 51 50 49 48 46 45 43 40 40 41 41 44 49 53 53 52 48 42 38 36 36 37 37 38 38 37 37 34 30 33 37 38 50 67 75 81 84 82 77 72 64 52 43 42 43 42 43 42 39 38 37 36 37 37 36 37 36 35 34 33 33 33
55 53 52 50 50 48 47 44 42 40 40 40 42 45 50 55 54 47 43 40 35 33 34 35 37 35 37 41 36 31 32 31 41 72 96 99 97 96 92 87 79 65 52 44 43 41 37 33 32 30 30 30 31 33 35 36 38 37 35 35 35 36 37
56 55 53 51 50 48 46 45 42 39 38 38 38 42 49 52 48 43 43 41 35 31 30 31 35 35 36 39 37 34 31 26 45 87 107 100 97 99 98 89 70 53 50 49 43 37 31 29 28 28 28 30 30 31 33 34 35 35 34 36 36 35 38
56 55 52 51 49 47 46 45 43 41 39 37 36 39 44 46 43 42 45 44 39 35 30 30 34 35 37 39 37 34 30 32 59 96 104 93 96 103 99 84 61 48 49 47 38 33 31 28 28 28 29 32 34 34 33 32 32 33 35 36 36 36 37
57 56 55 53 53 53 51 50 49 49 48 47 44 42 43 46 46 46 47 48 44 40 35 33 33 33 36 40 40 37 39 48 64 74 68 65 79 89 81 66 54 47 43 37 33 33 31 29 30 31 33 39 42 38 34 31 31 33 34 35 36 36 37
60 61 60 58 57 56 54 53 55 56 55 54 53 49 47 48 49 49 51 52 50 47 44 40 36 34 35 38 40 41 44 48 47 42 39 42 52 57 51 44 43 42 38 35 35 33 31 32 33 33 38 46 45 38 34 32 31 32 34 34 34 36 39
63 63 61 59 57 54 53 54 58 59 57 54 53 50 48 48 49 50 52 55 54 52 51 48 44 39 36 35 37 39 42 42 40 38 39 40 40 42 42 41 42 42 43 44 42 37 36 37 35 36 40 44 42 38 36 35 34 35 37 37 37 38 40
65 64 62 59 56 52 51 51 55 56 55 55 57 54 49 48 50 51 54 56 56 57 64 73 73 62 48 40 37 38 40 41 41 40 40 40 41 42 42 43 44 45 48 50 49 47 45 42 40 41 41 41 40 39 37 37 38 40 42 42 41 39 38
66 64 62 60 56 53 51 49 50 52 54 61 69 67 58 53 53 53 55 56 56 58 69 82 83 71 57 49 46 45 44 43 43 43 42 43 44 45 45 47 48 50 52 53 51 52 52 49 48 48 45 44 45 43 40 41 42 41 41 41 39 37 36
68 64 61 60 57 53 51 48 49 51 56 66 75 73 65 60 57 56 56 56 56 57 61 66 64 58 55 55 54 51 48 46 45 45 45 46 48 50 50 50 51 54 56 55 54 56 56 55 56 55 53 54 55 52 49 49 47 44 42 40 39 39 37
66 63 62 62 59 56 52 48 48 53 59 67 73 73 69 64 60 58 60 59 59 61 64 63 59 54 53 55 56 55 55 53 51 50 51 53 54 54 54 53 53 55 54 55 60 63 63 63 63 61 59 59 60 58 56 56 56 53 50 48 48 46 42
63 61 61 63 62 59 56 51 49 54 61 66 71 74 73 69 65 63 63 63 65 69 70 66 60 56 55 56 59 62 66 67 65 63 61 61 59 58 57 56 55 55 55 58 64 67 67 67 66 63 61 60 60 60 60 61 60 58 57 58 57 53 50
65 61 62 63 61 59 59 56 54 56 61 65 68 71 72 71 68 66 65 65 68 72 72 68 62 59 59 60 62 66 71 75 76 75 72 70 67 65 62 61 60 60 61 63 64 64 63 65 66 64 63 63 63 62 61 61 61 60 61 62 60 59 57
66 64 64 64 62 61 61 61 61 63 66 68 69 70 70 70 68 67 66 67 70 71 69 66 64 62 61 62 64 66 70 74 76 75 74 73 71 68 66 65 65 67 69 71 71 69 68 68 69 69 68 67 68 67 64 63 62 62 63 63 62 63 61
64 63 64 65 66 66 65 66 68 71 73 74 73 72 70 70 68 67 68 70 72 72 67 65 67 66 64 64 65 66 68 71 72 71 71 73 72 69 67 67 69 72 74 75 75 75 73 72 72 72 73 73 73 73 71 68 66 66 66 67 67 66 64
65 66 66 67 68 70 71 72 74 76 78 79 79 77 74 73 70 69 70 71 72 70 66 66 68 68 67 66 66 66 68 71 71 71 70 70 69 67 65 67 71 74 74 73 73 74 74 73 72 74 76 76 76 77 76 74 72 71 72 72 71 69 69
68 69 70 71 72 74 76 77 78 79 80 82 83 82 82 80 76 71 70 71 72 71 70 70 71 70 70 70 70 70 72 74 73 72 69 67 66 65 64 65 68 71 72 71 72 72 72 72 73 75 77 77 76 76 75 74 72 71 71 71 71 70 71
70 72 74 75 75 75 77 80 81 82 82 83 84 86 89 89 82 74 70 70 72 72 72 73 72 71 71 72 72 73 74 75 74 72 69 68 66 65 65 65 66 69 71 73 74 74 74 74 75 75 75 75 73 72 71 69 67 67 66 66 66 66 66
73 74 76 77 76 77 79 80 81 81 81 82 83 87 92 92 86 79 75 73 72 72 73 73 73 72 72 72 73 74 75 76 76 74 73 72 70 69 68 67 67 68 72 75 78 78 77 77 75 73 72 72 71 69 68 66 65 66 65 64 64 64 63

ECMWFFLT1_850_rhum_246.txt.gz
RH
44 44 44 43 43 44 45 48 51 54 56 60 64 66 69 74 76 75 74 74 77 82 86 89 91 92 93 93 93 93 93 93 94 93 93 93 93 94 95 95 97 100 98 98 100 100 99 100 100 100 98 98 99 100 100 100 100 100 100 100 100 100 99
42 40 40 40 40 40 41 44 47 51 55 60 64 67 71 76 79 78 74 70 70 74 80 84 87 88 89 90 91 93 93 92 92 92 93 93 93 93 93 93 93 94 94 94 97 100 100 100 100 99 96 96 96 96 97 99 99 100 100 99 100 100 100
39 37 37 37 36 36 37 39 43 47 54 62 69 74 77 81 84 83 79 73 69 70 75 79 80 81 82 83 86 88 90 90 90 90 90 91 92 92 93 94 93 93 91 88 88 96 100 99 98 97 95 94 95 93 93 94 94 95 97 98 98 99 99
36 35 35 34 34 34 34 35 39 43 50 60 73 84 87 88 91 91 86 81 78 75 74 76 76 75 75 75 77 80 82 85 86 87 88 88 89 89 90 91 93 94 94 89 84 88 94 97 96 95 94 93 93 92 91 90 88 87 89 89 90 92 94
35 35 34 34 34 33 34 35 36 40 46 53 66 84 95 96 97 97 92 89 89 85 82 79 77 75 73 71 71 72 73 76 79 81 82 84 85 86 86 86 88 90 92 92 88 85 88 92 90 87 87 87 87 86 84 84 83 81 79 79 79 81 84
36 36 36 36 36 36 36 37 37 40 44 48 55 71 89 100 101 99 97 97 95 93 91 87 82 78 77 73 70 68 67 67 70 73 75 78 79 80 82 82 83 84 85 87 88 87 86 86 84 81 79 78 78 77 76 76 76 76 75 73 73 73 74
39 39 39 39 39 39 39 39 40 41 42 47 52 58 71 91 101 101 100 100 99 98 96 91 85 81 79 77 71 65 62 61 63 65 68 72 74 75 76 78 79 79 80 81 82 83 84 83 82 80 77 74 73 74 76 74 72 71 70 70 69 68 68
42 42 42 42 42 41 41 40 40 41 42 45 48 50 62 86 101 100 99 100 100 100 98 92 85 79 79 78 71 62 57 57 59 62 64 67 71 72 71 73 74 75 76 77 77 78 79 78 78 77 75 73 70 70 73 72 69 68 67 67 67 66 64
43 43 42 42 41 41 41 40 39 41 42 42 46 57 76 94 101 100 99 101 100 100 100 92 81 76 77 74 66 60 56 54 57 61 63 65 68 70 71 70 70 72 74 74 74 75 76 74 74 73 70 68 66 65 66 66 67 67 66 64 64 64 62
41 42 41 41 41 40 39 39 39 39 41 42 49 70 93 101 100 100 100 100 100 100 99 91 80 76 73 66 59 56 53 51 52 55 59 63 65 70 77 75 70 70 74 74 73 74 75 74 73 71 69 67 65 63 62 62 63 63 62 60 60 61 59
41 41 43 43 42 41 40 39 39 39 43 45 47 68 96 102 98 101 100 99 101 99 95 90 82 73 63 55 52 52 50 49 48 49 53 57 60 65 74 77 74 73 74 75 77 75 74 75 72 69 69 68 65 62 61 61 60 59 59 58 57 56 55
43 43 45 45 44 44 42 40 41 40 44 47 45 65 96 103 98 101 100 99 101 97 92 86 76 62 51 46 47 48 47 46 46 47 48 52 58 60 63 68 72 77 77 78 82 79 73 75 75 69 68 71 70 65 61 60 59 58 56 56 56 54 51
45 44 46 47 46 47 44 42 44 42 43 47 47 62 90 102 99 100 100 100 100 93 83 72 59 49 44 41 43 44 45 46 45 44 45 51 56 55 55 59 62 67 73 80 88 88 82 85 84 76 74 79 77 69 65 65 63 57 54 53 53 53 50
46 45 47 50 49 50 47 45 45 43 45 49 45 56 86 102 100 100 100 99 92 77 64 54 49 46 43 40 40 40 43 46 43 43 51 61 65 60 56 56 55 58 71 86 96 97 94 97 95 89 88 86 79 78 83 81 68 55 50 50 49 47 46
48 48 49 52 52 53 49 47 48 46 48 48 44 61 94 103 94 93 95 90 76 59 51 50 46 43 41 39 37 36 42 44 43 54 75 88 88 77 66 64 64 66 77 93 102 100 99 101 99 98 100 94 86 89 92 82 64 52 48 47 45 44 43
50 50 51 52 54 55 51 49 50 49 49 48 45 64 93 96 89 92 91 83 68 53 48 48 42 38 39 38 35 36 38 37 47 74 98 101 95 86 78 77 76 75 81 91 96 96 98 100 99 98 99 94 86 83 77 63 52 46 43 42 42 42 41
47 48 50 50 52 54 52 50 50 50 50 47 46 65 92 97 95 98 94 83 70 56 48 45 41 40 41 38 37 37 33 35 60 92 103 96 91 88 86 84 80 77 80 81 79 77 78 81 83 82 79 75 68 62 54 47 44 43 41 42 43 43 40
46 46 48 50 51 53 52 50 50 50 51 47 47 66 90 96 96 98 96 86 70 54 45 43 42 42 43 41 40 37 33 39 62 88 95 92 95 96 94 92 88 83 76 66 62 63 62 62 62 59 55 51 47 43 39 38 44 48 44 44 47 48 42
46 46 46 48 50 51 52 51 50 49 50 48 48 56 71 85 96 101 96 82 62 45 39 41 42 42 44 44 40 37 37 37 48 74 93 98 100 100 95 95 97 92 75 55 47 48 47 45 43 40 38 37 35 36 35 37 47 56 57 57 60 62 57
47 47 46 47 48 48 50 51 50 49 49 48 47 49 57 75 90 89 79 67 52 40 37 39 41 43 45 46 42 40 38 34 48 82 103 101 99 99 94 93 92 83 67 51 42 39 37 36 35 33 34 35 35 37 40 43 55 69 76 78 78 76 74
47 47 46 45 46 46 47 50 51 50 49 48 47 48 52 59 63 60 59 61 55 43 38 41 42 43 47 48 46 43 39 42 67 97 102 95 96 93 84 77 68 55 48 44 40 38 37 37 37 36 36 38 37 39 42 46 60 78 90 92 87 79 72
47 48 47 45 46 46 46 49 51 50 50 49 49 50 51 51 50 50 59 72 69 51 42 45 46 45 48 51 50 48 49 59 76 81 73 71 74 67 57 53 47 41 41 41 39 39 39 38 38 38 38 39 39 40 42 44 54 70 83 87 82 72 61
48 49 48 47 47 48 48 50 51 51 52 52 51 52 52 52 52 51 57 69 70 58 49 49 49 48 51 53 53 51 53 58 58 52 49 53 55 52 49 47 45 43 43 40 39 41 40 38 40 41 40 40 38 38 40 42 45 51 56 58 58 56 53
51 51 51 50 49 49 51 52 53 53 54 55 56 56 55 54 54 54 56 60 64 61 57 54 51 50 52 54 54 53 52 52 49 47 50 51 51 52 53 50 48 47 46 44 42 42 41 40 42 44 44 42 40 39 39 41 43 45 46 47 48 48 50
54 53 54 54 53 52 53 54 54 55 56 58 59 60 59 58 58 59 60 60 61 62 63 61 57 54 53 53 54 54 53 51 50 50 51 52 53 55 55 55 55 53 50 48 45 43 44 43 43 45 47 45 45 44 44 45 45 47 50 53 51 49 48
56 57 56 56 56 56 55 54 54 55 56 59 61 61 61 62 62 63 64 65 65 67 68 68 66 63 59 56 55 56 55 53 52 51 52 53 54 55 56 59 61 60 56 53 49 47 47 45 45 48 49 49 50 49 50 53 52 48 48 50 49 47 45
58 58 59 59 59 58 57 55 54 54 56 59 61 60 62 63 63 64 64 65 67 68 70 70 69 65 61 58 56 57 57 57 55 53 53 53 54 56 58 60 63 64 61 57 54 52 50 48 49 51 50 52 54 52 54 59 57 52 48 48 47 45 42
59 58 60 62 61 60 59 56 54 55 59 62 63 63 64 63 63 64 64 64 66 68 70 70 68 63 61 60 60 59 60 60 59 58 56 55 55 56 58 60 62 64 62 61 61 59 54 50 50 51 53 55 55 55 57 60 60 57 54 52 52 50 45
59 58 61 64 63 63 63 59 56 59 64 66 68 69 69 69 69 69 69 69 72 74 75 74 70 66 64 65 65 64 62 61 61 61 59 57 57 57 57 58 61 62 62 65 68 65 59 55 52 50 52 55 56 56 57 61 63 63 60 57 57 56 53
60 60 63 65 64 65 67 64 62 64 68 70 71 72 73 73 73 74 74 75 79 81 79 75 71 67 65 66 67 67 65 64 65 64 62 60 60 60 59 58 59 60 62 65 69 68 64 60 55 51 51 54 55 55 56 59 62 64 63 62 61 59 58
60 60 63 66 65 66 67 66 66 68 70 72 73 74 75 74 73 74 75 77 82 84 78 73 70 67 65 66 68 67 66 67 67 67 65 64 63 62 61 60 59 61 64 68 70 70 67 63 59 56 53 53 54 53 53 55 58 62 64 64 64 63 62
56 57 60 63 66 67 66 65 66 68 70 72 74 74 75 75 75 75 75 78 83 82 75 71 71 68 66 68 69 67 67 69 69 67 67 67 66 64 64 63 63 64 68 72 72 70 68 65 63 62 59 56 55 53 51 51 54 58 63 65 65 66 65
51 53 56 58 61 64 65 64 66 68 70 71 72 72 72 73 73 74 75 79 82 78 71 69 69 68 67 68 69 68 68 70 69 68 68 69 68 66 65 65 67 69 71 72 71 70 69 67 66 66 64 61 60 59 56 53 52 56 61 64 65 65 64
46 50 53 54 55 59 61 62 65 67 68 70 70 70 72 73 71 69 69 73 76 74 70 69 69 67 67 67 68 68 69 70 69 70 71 70 69 69 68 67 69 72 73 73 74 75 73 71 70 70 69 66 65 65 64 61 59 60 63 65 65 64 62
41 45 49 51 52 54 56 60 63 64 66 68 69 71 74 76 72 66 64 65 68 68 67 68 68 67 66 66 67 67 68 69 69 70 72 72 71 71 70 69 70 71 73 76 79 79 78 77 76 74 73 72 70 69 68 66 65 67 69 70 69 68 65
41 42 45 47 48 51 54 57 60 62 64 66 67 70 75 76 72 67 65 65 64 64 64 64 63 63 63 64 66 66 67 68 68 68 69 71 72 72 72 72 71 71 72 76 80 81 82 82 82 79 78 78 76 74 71 69 68 70 74 75 75 73 71

ECMWFFLT1_850_rhum_252.txt.gz
RH
21 21 20 20 20 20 20 20 20 21 22 22 24 26 29 32 35 37 38 38 39 41 46 51 60 75 90 96 93 87 81 74 69 68 68 70 71 71 72 72 82 94 83 70 77 81 79 81 79 80 86 88 83 82 84 83 84 86 87 89 89 87 88
19 19 20 20 20 21 20 20 21 21 20 20 21 21 23 26 30 33 36 39 40 41 46 55 65 77 89 95 94 90 85 78 72 69 66 67 69 69 69 66 67 78 80 69 64 70 73 74 76 76 80 83 81 80 82 81 81 83 84 87 88 87 87
22 21 22 23 23 23 23 23 23 23 23 24 23 22 22 24 27 31 34 38 41 43 50 62 73 83 90 94 92 87 85 81 75 70 68 67 69 69 66 64 60 63 70 67 60 65 71 68 68 71 73 77 78 79 82 82 81 81 82 85 88 88 88
24 24 25 25 25 25 25 26 26 26 26 26 26 26 26 26 29 33 36 39 43 47 55 67 80 91 96 96 91 85 84 85 79 72 70 69 69 69 64 60 59 57 60 63 61 64 70 68 66 66 68 71 73 73 77 80 79 79 80 82 85 87 87
26 27 27 27 28 28 28 28 28 28 28 28 29 29 28 29 32 35 39 43 46 51 61 78 91 96 99 97 92 88 87 88 85 77 73 73 72 70 64 57 55 55 55 59 65 68 68 65 65 64 63 66 69 68 69 72 74 75 77 78 81 85 87
28 29 30 30 30 30 31 31 30 31 31 30 30 31 31 32 33 37 42 45 49 59 74 89 96 96 97 98 96 95 93 91 88 81 77 78 76 71 63 52 50 55 55 55 67 77 72 63 63 66 63 64 68 68 66 66 66 68 72 75 77 80 83
30 31 32 32 32 32 32 32 33 33 33 32 32 33 34 34 35 38 41 45 59 78 92 97 98 99 100 101 100 99 97 93 88 84 82 79 74 67 57 49 49 55 55 60 74 82 74 65 68 72 67 65 68 69 66 66 65 63 65 67 69 73 77
30 31 32 33 33 32 33 33 34 35 35 35 34 35 35 36 38 40 46 62 82 96 101 99 100 103 102 101 100 98 95 92 88 84 80 72 66 60 52 50 54 55 58 71 83 82 74 73 78 76 70 69 74 74 71 72 69 64 64 64 63 67 71
30 30 31 32 31 31 32 34 35 36 37 37 36 38 39 40 47 59 72 88 98 99 98 99 102 103 102 99 96 93 90 87 83 77 70 63 59 55 51 53 57 60 69 83 91 88 83 80 78 77 79 85 90 90 88 87 80 71 69 67 61 61 65
29 30 30 30 29 30 32 33 35 37 37 38 40 42 45 53 67 85 97 100 97 92 90 93 96 96 96 93 90 87 82 76 71 66 62 59 55 51 51 55 62 75 88 96 99 98 91 83 79 82 92 100 100 97 97 97 94 87 81 71 59 54 57
28 29 30 31 29 30 32 32 35 37 37 39 41 42 55 77 91 97 100 101 98 91 84 82 81 79 79 78 75 71 66 61 60 60 58 56 50 45 46 51 69 92 100 99 102 101 93 89 88 90 98 102 100 99 100 100 100 101 95 79 63 55 52
28 29 30 31 30 30 31 32 35 38 38 40 41 42 59 86 99 98 99 99 94 87 79 73 67 61 60 60 57 54 52 51 54 57 55 50 44 42 41 44 66 96 103 100 104 100 93 94 97 98 100 101 100 100 101 100 100 102 98 85 74 67 56
28 29 30 30 30 30 30 32 35 38 39 40 42 43 54 75 89 89 87 82 75 71 66 62 58 53 49 47 45 45 47 49 52 53 50 45 40 40 40 41 60 87 99 101 101 98 97 99 100 100 101 100 101 101 101 101 101 99 93 86 82 78 64
28 29 30 30 31 31 29 32 36 38 40 41 43 44 49 59 65 63 58 55 54 56 53 52 52 49 45 42 41 44 46 49 52 50 46 44 41 41 41 42 51 66 77 85 87 91 99 103 101 100 101 100 101 101 101 100 100 97 93 89 87 80 65
30 29 30 31 33 32 30 31 36 40 42 43 45 47 48 50 49 47 46 45 46 47 46 47 48 47 45 42 41 43 46 49 51 49 47 47 45 43 42 42 43 48 57 69 80 89 96 99 99 100 101 101 100 101 101 101 101 100 95 89 82 70 57
32 32 31 32 34 34 31 31 35 41 43 44 47 48 48 48 47 47 47 45 45 46 46 46 47 46 46 44 42 42 44 46 48 50 52 53 50 50 50 48 49 57 67 77 88 95 97 98 99 99 99 99 100 100 98 94 90 85 78 71 63 53 47
32 33 33 33 35 36 34 31 34 41 44 45 48 50 49 49 49 49 48 46 47 48 47 47 48 48 47 46 45 45 44 44 49 59 65 60 52 53 55 53 55 64 71 73 76 79 81 84 88 87 85 82 80 77 71 65 62 58 55 54 51 49 46
31 31 33 35 36 38 38 34 35 41 44 46 49 51 51 51 50 49 48 47 48 49 49 49 49 49 50 49 48 48 47 47 57 70 71 59 54 61 63 58 57 60 61 61 61 61 63 66 68 66 63 57 52 49 47 45 46 47 48 50 52 57 52
33 31 32 35 36 38 40 38 36 40 44 46 48 52 54 54 53 51 49 49 50 48 48 49 49 50 52 51 51 51 49 50 57 65 63 60 73 86 79 65 63 65 63 58 53 51 52 52 50 48 46 43 41 42 42 42 44 47 52 56 59 65 68
36 33 32 34 35 35 38 40 39 40 44 45 47 51 54 55 54 53 52 52 51 48 45 46 48 51 52 53 53 52 51 52 53 58 68 83 98 99 81 67 66 68 65 57 50 46 45 42 40 40 42 43 43 44 43 43 46 50 58 65 65 69 79
37 36 32 32 33 33 34 38 40 41 43 45 46 49 53 55 55 56 56 54 51 49 47 45 46 49 51 54 56 55 54 55 54 60 76 91 92 83 73 68 67 63 59 55 52 50 47 43 41 41 43 45 46 45 45 45 48 53 59 66 67 69 75
36 36 32 29 30 31 31 34 38 40 41 44 47 49 53 55 55 58 59 56 51 48 48 48 48 49 51 54 57 57 57 59 59 61 67 69 66 64 65 67 65 60 57 56 55 53 49 46 44 43 43 46 46 47 48 48 49 53 56 59 62 64 64
36 36 33 29 27 28 30 32 34 35 37 41 45 49 53 55 56 57 59 57 53 50 50 50 51 52 54 55 57 57 58 60 61 62 61 59 59 60 61 63 62 61 60 59 57 56 52 48 47 46 45 46 47 48 50 51 50 52 53 54 56 58 59
36 36 35 32 28 27 30 32 32 33 35 38 43 47 51 54 56 57 59 58 55 53 53 53 53 55 57 58 57 57 58 59 60 61 61 62 63 63 62 63 62 62 63 63 60 58 55 51 49 49 48 48 50 50 51 53 53 53 53 53 54 56 58
36 36 36 35 33 31 31 31 32 34 36 39 43 46 50 53 55 57 60 61 59 57 57 57 57 58 59 59 60 59 59 57 56 58 60 62 64 65 65 65 65 65 66 64 60 57 56 53 51 53 53 54 54 53 52 53 55 56 56 55 54 54 55
35 36 36 36 36 35 34 33 33 34 37 41 45 47 49 51 53 56 60 61 61 61 61 61 62 61 60 60 59 59 59 56 54 55 57 58 61 64 66 67 69 70 69 66 62 58 56 54 54 56 56 56 56 55 55 56 57 56 56 58 58 55 52
34 35 35 36 36 36 36 35 34 35 38 42 46 48 50 52 53 55 57 59 61 63 64 64 64 64 63 61 59 59 58 56 54 53 53 54 56 60 63 67 69 72 73 71 67 63 59 57 58 58 57 58 59 58 57 60 62 60 57 58 60 57 51
33 32 34 36 35 35 36 35 34 37 41 44 46 48 50 53 54 55 57 58 59 61 62 62 61 59 59 59 57 56 56 55 54 54 53 53 54 56 59 63 67 70 71 70 70 69 65 61 60 59 59 60 60 58 58 63 66 64 61 61 62 58 53
31 31 34 35 34 36 38 36 35 39 44 48 51 53 55 57 57 59 60 60 63 68 69 66 63 60 58 58 58 57 57 57 57 56 56 55 56 57 59 61 64 66 67 69 71 72 71 68 65 61 60 61 61 59 60 64 66 67 67 68 67 62 57
30 30 33 35 34 35 38 38 37 39 43 47 51 54 58 61 63 66 67 67 73 80 80 74 70 65 62 63 64 62 61 61 63 63 62 61 61 62 62 63 63 63 64 67 71 72 72 72 70 66 64 63 62 60 61 64 65 67 70 71 70 67 62
29 29 32 34 34 34 34 35 36 39 42 47 51 55 59 62 65 69 70 74 85 92 88 80 75 71 67 67 69 68 67 68 69 70 70 69 68 68 67 67 66 65 66 69 70 71 70 71 70 69 67 67 65 63 64 65 66 67 69 69 69 67 64
27 28 29 32 33 33 34 36 41 47 53 59 63 66 69 72 74 75 76 82 94 99 93 86 84 81 75 74 74 73 72 74 75 75 76 77 76 74 73 72 70 70 72 72 70 70 70 70 70 69 68 68 69 68 66 66 68 69 70 69 68 66 63
26 27 28 30 34 38 42 47 53 60 65 69 72 75 80 84 86 84 83 90 99 101 99 97 97 95 91 89 89 86 84 83 82 81 82 82 81 79 78 77 77 78 77 74 71 70 71 71 71 71 70 69 69 69 69 69 70 72 73 71 68 65 64
27 29 33 38 44 49 53 58 63 66 68 70 73 77 85 92 92 85 85 93 103 105 105 105 105 103 102 102 101 100 99 98 95 93 93 92 89 84 82 82 84 85 81 77 75 73 72 71 72 73 73 71 70 70 71 71 72 74 76 74 70 67 66
34 38 44 49 53 55 58 61 64 66 67 69 72 78 89 99 100 94 93 98 103 104 103 103 103 102 101 102 102 101 102 102 101 101 102 102 100 96 91 87 87 87 86 83 81 77 74 74 74 74 74 75 73 72 71 71 72 76 77 76 74 73 71
42 48 50 50 51 54 57 60 64 68 70 72 77 87 98 104 104 102 102 102 102 101 101 101 101 101 101 101 101 101 100 101 101 101 101 102 103 103 101 97 93 91 90 90 87 81 77 76 75 74 75 77 76 74 73 73 73 76 78 78 78 77 76

ECMWFFLT1_850_rhum_258.txt.gz
RH
15 15 15 12 11 10 9 10 10 10 11 10 11 10 11 13 12 13 14 14 16 17 19 20 20 21 23 28 33 33 39 48 57 67 78 89 93 94 104 100 96 107 97 79 79 82 92 77 36 32 40 29 32 38 35 33 27 33 49 44 29 27 30
16 16 16 13 12 12 10 11 11 11 12 11 12 12 12 14 14 14 15 16 17 18 20 22 22 23 26 29 32 33 38 43 45 57 67 77 90 94 96 100 99 104 103 92 81 78 86 78 48 37 40 31 31 42 41 33 33 52 67 52 32 28 28
17 17 17 15 14 13 12 13 12 12 13 13 13 13 13 15 15 16 17 17 18 19 21 24 24 25 27 29 31 30 35 42 42 52 68 75 85 93 93 97 102 102 104 104 89 79 84 77 50 37 38 32 36 50 55 55 62 68 67 60 53 44 31
18 18 18 16 15 14 14 14 14 14 15 15 15 15 15 16 16 17 19 19 20 21 23 25 25 26 27 25 29 30 31 42 49 52 64 71 75 85 91 91 93 94 98 103 95 82 80 72 49 37 38 43 55 67 72 78 79 72 74 84 86 75 56
18 18 18 17 16 16 15 15 15 15 16 16 17 17 16 18 18 18 20 20 22 23 24 26 25 25 27 25 26 32 34 41 49 50 55 62 64 67 71 69 68 71 78 92 96 84 72 62 49 40 42 60 82 91 88 88 86 83 93 101 96 94 83
18 18 18 18 17 16 16 17 17 16 17 17 18 18 18 19 20 20 21 22 23 25 23 25 26 23 25 27 26 31 38 41 46 49 50 53 54 53 55 54 50 51 59 74 82 76 66 57 50 49 57 76 95 102 98 96 97 96 100 101 96 100 93
18 18 18 18 17 17 17 18 18 18 19 19 19 20 20 21 22 21 22 23 22 24 24 22 25 25 25 30 33 33 38 42 45 49 49 49 50 51 52 51 47 47 51 60 68 72 71 65 57 62 79 92 98 102 100 100 101 99 100 102 99 100 97
17 17 18 18 17 18 18 18 19 19 20 21 21 22 23 22 25 23 22 24 21 21 24 22 24 28 30 33 37 37 38 41 44 48 49 49 50 52 52 50 50 50 49 57 69 71 73 79 77 79 93 101 99 100 100 100 101 99 100 102 98 100 100
17 17 17 18 17 18 18 18 20 21 22 24 23 24 24 23 23 23 21 22 22 20 22 25 26 29 32 35 37 38 39 39 42 46 48 49 50 51 52 51 51 51 51 59 68 63 67 87 96 95 100 101 99 102 101 99 101 100 100 101 100 100 95
17 17 17 18 17 16 17 17 20 23 23 25 26 25 27 25 23 26 25 24 27 27 24 26 30 31 33 35 36 38 39 39 40 42 44 47 50 51 53 53 51 50 50 56 61 59 65 88 100 97 98 101 101 102 101 99 100 100 99 101 101 96 84
16 16 16 17 16 15 17 17 20 24 23 24 27 29 32 33 31 31 31 32 36 37 32 29 31 32 33 35 36 37 39 38 38 40 41 43 47 49 51 53 53 53 51 51 55 54 61 81 91 87 90 100 101 99 100 101 100 100 100 99 101 99 80
15 16 16 16 15 15 15 16 19 24 25 24 27 30 32 34 35 35 34 36 40 40 36 34 33 33 32 34 36 37 38 39 38 39 40 40 43 45 47 49 51 53 54 52 53 53 53 61 71 75 76 78 82 90 99 101 99 100 102 99 101 103 86
15 16 16 15 16 15 14 15 18 22 25 26 26 29 32 32 33 35 35 35 37 37 35 34 34 34 32 32 36 37 38 39 40 41 41 40 40 41 41 44 47 49 52 53 53 55 51 49 56 65 58 50 62 86 99 101 100 99 101 101 99 96 86
14 15 15 15 16 16 13 14 18 21 23 26 27 29 32 32 31 32 33 32 33 35 34 33 34 35 33 32 35 37 38 40 42 42 43 41 40 39 38 40 42 44 48 51 53 56 55 51 52 53 49 54 77 99 101 99 100 99 100 101 97 91 83
14 14 14 16 16 15 14 13 17 21 22 24 28 30 31 31 30 30 30 29 30 32 32 33 35 35 34 33 33 35 38 43 45 45 45 43 41 40 39 38 40 41 43 47 50 52 53 53 54 58 67 82 97 101 99 99 100 101 101 99 95 88 75
15 14 14 15 16 15 14 13 15 20 22 23 27 30 31 30 30 30 28 27 28 29 30 31 34 35 36 35 34 35 38 43 48 49 48 47 45 43 42 41 40 41 42 44 48 53 61 67 73 82 93 100 100 100 104 105 99 95 91 86 82 74 59
15 16 15 15 17 17 15 13 15 19 21 23 25 29 30 30 30 30 28 27 28 29 29 30 30 33 35 35 35 37 39 44 50 52 52 50 49 48 46 43 42 43 43 45 48 58 70 77 79 83 89 93 96 98 97 91 79 70 65 65 65 61 57
15 15 16 16 16 18 16 14 15 18 21 22 25 28 29 29 29 29 28 28 30 30 31 32 31 33 35 35 36 39 42 45 50 54 55 55 56 56 52 47 46 48 48 48 48 50 55 58 57 59 62 63 67 70 68 63 60 57 56 58 58 59 64
16 15 16 17 16 17 18 16 16 18 22 23 24 27 29 29 30 30 30 31 33 33 33 33 33 34 35 36 37 39 43 47 51 55 58 61 65 66 60 55 57 58 55 54 53 50 48 48 47 47 49 48 47 49 53 54 58 60 61 62 57 58 72
19 16 15 16 17 16 17 18 18 19 22 23 24 26 29 31 31 32 34 35 35 35 35 35 35 36 37 39 41 42 44 47 51 56 60 66 72 72 68 71 78 78 71 67 65 60 55 54 52 50 51 50 46 47 50 53 58 60 63 66 61 55 67
19 18 15 15 16 16 16 18 19 20 21 23 25 26 29 31 32 33 37 39 38 38 38 37 37 37 38 41 44 46 49 49 52 58 64 71 79 83 85 93 100 98 91 82 74 69 66 64 61 58 57 56 53 51 51 53 58 61 61 65 64 59 61
19 19 17 15 15 16 16 18 19 20 21 22 24 27 28 30 32 34 39 42 42 42 42 43 43 43 44 46 47 49 52 54 57 63 67 70 75 81 88 94 96 95 92 85 77 74 73 72 69 66 63 62 59 57 56 55 57 60 61 62 62 62 61
20 19 17 16 15 15 16 17 18 20 21 23 25 27 29 32 35 39 44 49 50 52 53 54 56 58 59 60 60 60 60 61 62 63 64 65 68 73 79 86 91 94 95 92 88 83 77 75 73 70 68 65 63 62 62 61 60 61 63 64 62 62 62
19 19 18 16 16 15 16 18 20 21 23 26 30 34 37 41 45 48 53 56 58 59 61 64 66 69 71 72 73 74 73 72 72 70 68 69 72 77 84 90 96 100 102 102 101 94 85 82 80 77 72 69 67 67 66 66 66 64 63 65 65 62 61
19 19 18 18 18 18 18 20 23 27 31 35 40 43 44 45 47 48 51 55 59 62 64 68 71 72 74 76 77 79 79 79 79 79 78 79 82 86 92 96 99 102 103 104 105 102 96 91 87 84 80 75 71 71 68 67 70 68 65 66 66 63 61
19 19 19 20 20 21 22 26 30 35 39 42 43 44 44 43 43 45 48 51 55 57 59 61 62 63 66 69 70 72 74 75 76 78 81 85 88 92 98 101 103 104 103 102 102 104 103 99 92 91 91 87 80 77 74 71 71 70 68 68 69 67 64
20 20 21 22 23 25 30 34 37 38 39 40 43 46 48 50 51 55 59 61 63 66 68 71 71 70 71 72 72 74 77 77 77 79 81 84 88 94 100 104 104 103 102 101 101 102 103 102 98 98 100 99 94 88 83 78 74 72 72 73 74 73 69
21 21 24 26 29 34 38 37 36 36 40 45 49 52 55 58 63 68 72 74 78 83 86 87 86 86 88 90 91 93 97 97 96 95 93 92 93 96 100 103 103 102 101 102 104 103 102 101 100 100 102 104 103 98 92 87 82 76 74 77 79 78 74
22 24 29 33 36 40 42 39 36 39 45 49 53 58 62 66 73 80 83 85 90 94 93 90 89 90 94 99 102 105 106 106 105 105 104 103 101 101 100 101 102 101 101 103 106 105 102 100 100 100 101 103 105 102 98 95 90 83 78 80 83 82 79
26 30 35 38 38 38 39 39 40 44 48 52 56 62 68 71 77 82 85 87 93 96 94 92 93 95 98 102 105 107 106 106 106 107 107 105 104 104 103 102 101 101 101 104 107 106 102 101 100 100 100 102 104 104 103 102 98 90 84 84 85 85 82
32 35 37 37 37 37 37 40 45 51 55 60 64 68 71 73 76 78 81 85 92 95 95 97 100 102 103 106 107 106 107 108 108 108 107 106 104 104 104 103 102 101 101 102 105 106 104 102 100 100 100 101 103 104 105 106 104 99 92 87 87 88 85
32 32 32 33 35 38 41 45 51 55 58 61 64 67 70 71 70 71 76 84 92 96 98 102 106 106 105 107 108 108 109 109 107 106 106 105 103 103 103 103 103 103 101 102 104 106 106 104 102 101 100 100 101 102 104 106 107 107 102 95 90 89 87
28 28 30 33 37 42 47 50 52 53 55 58 61 65 68 67 64 66 73 83 92 97 100 104 107 107 107 109 109 109 110 109 106 106 106 105 104 104 103 102 102 101 101 101 102 104 106 105 103 102 100 100 100 100 101 103 105 106 107 104 98 92 88
24 28 33 39 43 48 51 52 51 51 53 55 58 63 67 68 66 66 72 81 91 98 103 106 107 107 108 109 109 107 108 108 107 106 105 105 105 106 106 104 102 101 100 100 101 103 105 104 102 102 101 100 100 100 100 101 102 101 102 104 104 100 94
26 31 36 41 44 46 47 47 47 48 50 53 59 65 70 73 74 75 79 86 94 101 105 107 108 107 107 108 107 105 104 105 106 105 105 104 103 104 105 106 105 103 101 100 100 102 104 103 101 100 101 100 100 100 100 100 101 101 101 102 106 106 101
34 36 37 39 41 43 43 43 45 47 50 54 59 64 69 75 80 84 88 91 94 99 103 106 107 107 106 105 105 104 104 104 105 106 106 105 103 102 103 104 105 104 103 102 102 102 103 104 101 99 100 101 100 100 101 100 100 101 101 102 104 106 105